Location: Bruderhein
(53.8035°N, 112.9265°W)
Time: 02:53:36
(UTC+00:00)

KKS-1 - Pass Details

Date: 03 April 2023
Orbit: 633 x 644 km, 98.2° (Epoch: 31 May)

Event Time Altitude Azimuth Distance (km) Brightness Sun altitude
Rises 08:25:36 0° 2° (N) 2,946 ? -30.0°
Maximum altitude 08:30:40 11° 312° (NW) 1,957 ? -29.8°
Enters shadow 08:31:22 11° 302° (WNW) 1,980 ? -29.8°
